Location: Chevoux
(46.3801°N, 4.9476°E)
Time: 13:25:15
(UTC+00:00)

Transit 4A - Visible Passes

Search period start: 13 May 2021 00:00
Search period end: 23 May 2021 00:00
Orbit: 870 x 974 km, 66.8° (Epoch: 13 May)

Date Brightness Start Highest point End Pass type
(mag) Time Alt. Az. Time Alt. Az. Time Alt. Az.
13 May 9.8 01:05:30 10° NNW 01:10:31 28° NE 01:15:27 10° E visible
13 May 7.7 02:51:33 10° NW 02:57:22 68° WSW 03:03:08 10° SSE visible
13 May 10.5 19:49:02 10° W 19:53:46 23° NW 19:58:25 10° NNE visible
13 May 11.1 21:41:37 10° NNW 21:42:34 10° N 21:43:31 10° N visible
13 May 10.7 23:29:15 10° N 23:31:53 13° NNE 23:34:30 10° NE visible
14 May 9.3 01:14:40 10° NNW 01:20:05 36° NE 01:25:26 10° ESE visible
14 May 8.0 03:01:00 10° NW 03:06:35 47° WSW 03:12:06 10° S visible
14 May 10.6 19:59:24 10° WNW 20:03:29 18° NNW 20:07:32 10° NNE visible
14 May 10.5 23:38:19 10° N 23:41:44 15° NNE 23:45:07 10° ENE visible
15 May 8.7 01:23:53 10° NNW 01:29:35 49° NE 01:35:12 10° SE visible
15 May 8.4 03:10:36 10° NW 03:15:42 32° WSW 03:20:46 10° S visible
15 May 10.7 20:09:56 10° WNW 20:13:17 15° NNW 20:16:36 10° N visible
15 May 10.3 23:47:25 10° NNW 23:51:31 19° NNE 23:55:34 10° ENE visible
16 May 8.1 01:33:08 10° NNW 01:38:59 69° NE 01:44:47 10° SE visible
16 May 8.9 03:20:26 10° WNW 03:24:45 22° WSW 03:29:04 10° SSW visible
16 May 10.8 20:20:37 10° NW 20:23:09 13° NNW 20:25:40 10° N visible
16 May 10.8 22:11:25 10° N 22:12:29 10° N 22:13:33 10° NNE visible
16 May 9.9 23:56:32 10° NNW 00:01:13 24° NE 00:05:51 10° E visible
17 May 7.7 01:42:25 10° NW 01:48:19 85° WSW 01:54:08 10° SSE visible
17 May 10.9 20:31:28 10° NNW 20:33:04 11° NNW 20:34:40 10° N visible
17 May 10.6 22:20:22 10° N 22:22:26 12° NNE 22:24:28 10° NE visible
18 May 9.5 00:05:41 10° NNW 00:10:51 31° NE 00:15:56 10° ESE visible
18 May 7.8 01:51:49 10° NW 01:57:34 60° WSW 02:03:15 10° SSE visible
18 May 11.0 20:42:48 10° N 20:43:02 10° N 20:43:15 10° N visible
18 May 10.4 22:29:24 10° N 22:32:19 14° NNE 22:35:11 10° NE visible
19 May 9.0 00:14:52 10° NNW 00:20:23 40° NE 00:25:50 10° ESE visible
19 May 8.2 02:01:18 10° NW 02:06:44 41° WSW 02:10:43 17° S visible
19 May 10.3 22:38:29 10° NNW 22:42:08 17° NNE 22:45:45 10° ENE visible
20 May 8.4 00:24:05 10° NNW 00:29:51 55° NE 00:34:57 13° SE visible
20 May 8.7 02:10:58 10° NW 02:15:51 28° WSW 02:18:22 21° SSW visible
20 May 10.0 22:47:34 10° NNW 22:51:53 20° NNE 22:56:09 10° E visible
21 May 7.8 00:33:21 10° NNW 00:39:13 77° NE 00:42:54 24° SE visible
21 May 9.1 02:20:56 10° WNW 02:24:53 19° WSW 02:26:20 17° SW visible
21 May 10.6 21:11:31 10° N 21:12:56 11° NNE 21:14:21 10° NNE visible
21 May 9.6 22:56:43 10° NNW 23:01:34 26° NE 23:06:22 10° E visible
22 May 7.6 00:42:40 10° NW 00:48:32 76° WSW 00:51:04 35° SSE visible
22 May 9.5 02:31:38 10° W 02:33:50 12° WSW 02:34:31 12° WSW visible
22 May 10.4 21:20:30 10° N 21:22:51 12° NNE 21:25:12 10° NE visible
22 May 9.2 23:05:52 10° NNW 23:11:09 34° NE 23:15:57 12° ESE visible
